Regional Weather Roundup
Issued by NWS Charleston, SC

Current Version | Previous Version | Graphics & Text | Print | Product List | Glossary On
Versions: 1 2 3 4 5 6 7 8 9 10 11 12 13 14 15 16 17 18 19 20 21 22 23 24 25 26 27 28 29 30 31 32 33 34 35 36 37 38 39 40 41 42 43 44 45 46 47 48 49 50
000
ASUS42 KCHS 280228
RWRCHS

REGIONAL WEATHER ROUNDUP
NATIONAL WEATHER SERVICE CHARLESTON SC
1000 PM EDT WED JUL 27 2016

NOTE: "FAIR" INDICATES FEW OR NO CLOUDS BELOW 12,000 FEET WITH NO
SIGNIFICANT WEATHER AND/OR OBSTRUCTIONS TO VISIBILITY.

NOT ALL STATIONS ARE QUALITY CONTROLLED. USE DATA WITH CAUTION...
ESPECIALLY DEWPOINT OBSERVATIONS.

SCZ027-030-031-034>040-042>050-280300-
...SOUTHEAST SOUTH CAROLINA...

CITY           SKY/WX    TMP DP  RH WIND       PRES   REMARKS
N CHARLESTON   CLEAR     85  78  80 SW9       29.98R HX  96
WATERFRONT PRK   N/A     85  80  85 SW8       29.95R HX  99
MOUNT PLEASANT FAIR      84  79  84 SW6       29.99R HX  96
JOHNS ISLAND   FAIR      86  81  84 SW8       29.99R HX 102
PINOPOLIS        N/A     88  73  62 VRB2      29.89R HX  96
MONCKS CORNER  FAIR      81  75  83 S3        29.98R
SUMMERVILLE    NOT AVBL
BEAUFORT MCAS  CLEAR     86  78  77 S5        29.98R HX  98
BEAUFORT ARPT  FAIR      86  77  74 SW6       29.98S HX  97
HILTON HEAD IS CLEAR     86  79  79 SW8G14    30.01R HX  99
WALTERBORO     CLEAR     86  73  66 S5        29.99R HX  93
ALLENDALE      FAIR      84  73  70 CALM      29.98R HX  91

...SOUTHERN MIDLANDS AND PEE DEE...

CITY           SKY/WX    TMP DP  RH WIND       PRES   REMARKS
GEORGETOWN     NOT AVBL
KINGSTREE      FAIR      79  73  83 CALM      29.97R
ORANGEBURG     CLEAR     83  74  74 SW5       29.97R
BARNWELL       NOT AVBL
AIKEN          FAIR      82  68  61 SW5       30.02R
MANNING        FAIR      81  73  78 CALM      29.97R
COLUMBIA       CLEAR     89  70  53 SW6       29.95R HX  94
SUMTER         CLEAR     88  72  58 SW7       29.95R HX  94
FLORENCE       CLEAR     86  75  69 S5        29.96R HX  95
MYRTLE BEACH   CLEAR     86  73  66 SW8       29.98R HX  93
N MYRTLE BEACH CLEAR     84  80  88 SW10      29.96R HX  97

$$

GAZ063-065-086>088-099>101-113>116-118-119-134>141-150-280300-
...SOUTHEAST GEORGIA...

CITY           SKY/WX    TMP DP  RH WIND       PRES   REMARKS
SAVANNAH ARPT  PTCLDY    85  77  77 S8        29.99  HX  95
HUNTER AAF     CLEAR     85  80  82 S7        29.97R HX  99
FORT STEWART   CLEAR     86  72  61 CALM      29.98R HX  92
STATESBORO     CLEAR     85  76  73 CALM      30.00R HX  95
SYLVANIA       NOT AVBL
CLAXTON        FAIR      82  75  80 SW3       30.00R

...CSRA...CENTRAL AND FAR SOUTHEAST GEORGIA...

CITY           SKY/WX    TMP DP  RH WIND       PRES   REMARKS
THOMSON        NOT AVBL
AUGUSTA-BUSH   CLEAR     85  69  58 SW5       29.96R
AUGUSTA-DANIEL CLEAR     88  69  53 SW5       29.98S HX  92
SWAINSBORO     FAIR      86  70  58 CALM      30.01S HX  90
VIDALIA        CLEAR     84  70  61 CALM      30.02R
EASTMAN        FAIR      84  62  48 CALM      30.04S
HAZLEHURST     FAIR      83  73  70 CALM      30.02R
ALMA           CLEAR     85  69  58 SW3       30.02R
WAYCROSS       CLEAR     86  74  66 W5        30.03R HX  94
JESUP          FAIR      82  77  83 SW3       30.02R HX  91
BAXLEY         FAIR      82  75  78 CALM      30.02R
BRUNSWICK      CLEAR     86  79  79 S10G16    30.03R HX  99
SAINT SIMONS   CLEAR     85  76  74 SW8       30.02R HX  94

$$

SCZ027-028-034-036>038-045-046-048>050-GAZ119-141-280300-
...LAKE AND SUPPLEMENTAL COASTAL OBSERVATIONS...

STATION/POSITION TIME  TEMP    WIND        PRES    WAVE   SWELL
                       AIR SEA DIR/SP/G            HT/PER HT/PER/DIR
                 (UTC) (F)     (DEG/KT/KT) (MB)    (FT/S) (FT/S/D)
WINYAH BAY       0145   85     240/  6     1014.0R
LAKE MURRAY      0100   91     230/  9/ 12 1013.2R
ACE BASIN NERRS  0100   86        CALM     1015.0S
FORT PULASKI     0200      88                N/A
SAPELO ISLAND    0200   86     190/ 10     1016.0S

$$

ANZ835-935-AMZ111-154-330-350-352-354-370-450-454-472-280300-
...C-MAN AND BUOY OBSERVATIONS...

STATION/POSITION TIME  TEMP    WIND        PRES    WAVE   SWELL
                       AIR SEA DIR/SP/G            HT/PER HT/PER/DIR
                 (UTC) (F)     (DEG/KT/KT) (MB)    (FT/S) (FT/S/D)
BUOY 41004       0150   86 86  210/ 16/ 17 1014.5R   3/ 4   2/170/ 8
BUOY 41008       0150   87 87  170/ 16/ 19 1015.9R   2/ 4
FOLLY BEACH CMAN 0200   86     220/ 14/ 17 1015.4R
CAPERS NEARSHORE 0208   85 84  230/ 14/ 17 1015.2R
FRIPP NEARSHORE  0208   87 87  210/ 16/ 21 1014.7R


STATION/POSITION TIME  TEMP    WIND        PRES    WAVE   SWELL
                       AIR SEA DIR/SP/G            HT/PER HT/PER/DIR
                 (UTC) (F)     (DEG/KT/KT) (MB)    (FT/S) (FT/S/D)
5E ST. MARYS GA  0201      86                N/A     3/ 4
FRYING PAN BUOY  0200   85 85  230/ 12/ 16 1015.3R
BUOY 41025       0150   82 85  280/ 10/ 12 1013.8R   3/ 6   2/210/ 6
CAPE LOOKOUT NC  0200   76      10/ 25/ 30 1016.5R
BUOY 41002       0150   84 85  250/ 10/ 12 1016.4R   4/ 6   3/270/ 6
BUOY 41010       0120   85 87  150/  4/  6 1018.0
ST AUGUSTINE FL  0200   83 87  190/ 11/ 14 1018.4R


$$



USA.gov is the U.S. government's official web portal to all federal, state and local government web resources and services.